TimeCDT,TemperatureF,Dew PointF,Humidity,Sea Level PressureIn,VisibilityMPH,Wind Direction,Wind SpeedMPH,Gust SpeedMPH,PrecipitationIn,Events,Conditions,WindDirDegrees,DateUTC
12:48 AM,71.6,66.2,83,29.94,7.0,East,4.6,-,N/A,,Partly Cloudy,100,2013-04-28 05:48:00
1:40 AM,69.8,66.2,88,29.95,7.0,Calm,Calm,-,N/A,,Partly Cloudy,0,2013-04-28 06:40:00
2:46 AM,69.8,66.2,88,29.95,7.0,Calm,Calm,-,N/A,,Partly Cloudy,0,2013-04-28 07:46:00
3:48 AM,71.6,64.4,78,29.96,7.0,East,5.8,-,N/A,,Scattered Clouds,100,2013-04-28 08:48:00
4:47 AM,71.6,66.2,83,29.93,7.0,SE,8.1,-,N/A,,Scattered Clouds,130,2013-04-28 09:47:00
5:48 AM,73.4,64.4,73,29.94,7.0,SE,10.4,-,N/A,,Mostly Cloudy,130,2013-04-28 10:48:00
6:40 AM,73.4,64.4,73,29.91,7.0,SE,10.4,-,N/A,,Mostly Cloudy,130,2013-04-28 11:40:00
7:45 AM,75.2,64.4,69,29.95,8.0,ESE,8.1,-,N/A,,Mostly Cloudy,110,2013-04-28 12:45:00
8:41 AM,77.0,68.0,74,29.96,8.0,ESE,18.4,-,N/A,,Mostly Cloudy,110,2013-04-28 13:41:00
9:41 AM,80.6,66.2,61,29.99,8.0,ESE,17.3,-,N/A,,Mostly Cloudy,110,2013-04-28 14:41:00
10:44 AM,84.2,64.4,51,29.97,8.0,SE,16.1,-,N/A,,Mostly Cloudy,130,2013-04-28 15:44:00
11:51 AM,82.4,66.2,58,29.97,8.0,ESE,9.2,-,N/A,,Mostly Cloudy,110,2013-04-28 16:51:00
12:53 PM,84.2,66.2,55,29.91,8.0,SE,11.5,-,N/A,,Mostly Cloudy,140,2013-04-28 17:53:00
1:42 PM,82.4,66.2,58,29.93,8.0,SE,15.0,-,N/A,,Mostly Cloudy,130,2013-04-28 18:42:00
2:40 PM,82.4,66.2,58,29.91,8.0,SE,15.0,-,N/A,,Mostly Cloudy,140,2013-04-28 19:40:00
3:42 PM,82.4,68.0,62,29.92,8.0,ESE,13.8,-,N/A,,Mostly Cloudy,110,2013-04-28 20:42:00
4:42 PM,82.4,68.0,62,29.88,8.0,ESE,17.3,-,N/A,,Mostly Cloudy,110,2013-04-28 21:42:00
5:41 PM,80.6,68.0,65,29.87,8.0,SE,11.5,-,N/A,,Scattered Clouds,130,2013-04-28 22:41:00
6:40 PM,77.0,68.0,74,29.83,8.0,ESE,15.0,-,N/A,,Scattered Clouds,120,2013-04-28 23:40:00
7:40 PM,75.2,68.0,78,29.88,8.0,SE,8.1,-,N/A,,Scattered Clouds,130,2013-04-29 00:40:00
8:40 PM,75.2,68.0,78,29.89,8.0,SE,6.9,-,N/A,,Scattered Clouds,130,2013-04-29 01:40:00
9:52 PM,75.2,68.0,78,29.92,7.0,SE,8.1,-,N/A,,Scattered Clouds,130,2013-04-29 02:52:00
10:45 PM,75.2,69.8,83,29.89,7.0,SE,10.4,-,N/A,,Scattered Clouds,130,2013-04-29 03:45:00
11:46 PM,75.2,69.8,83,29.89,7.0,SE,9.2,-,N/A,,Partly Cloudy,130,2013-04-29 04:46:00